[[{"header":{"parameterUnit":"m.s-1","parameterCategory":1,"la1":30.2991,"la2":30.254,"lo1":-89.0895,"lo2":-89.0444,"dy":0.0017,"dx":0.0017,"nx":28,"ny":28,"refTime":"2024-07-27T21:00:00:Z","depth":0,"parameterNumber":2,"parameterNumberName":"U-component_of_WINDS"},"data":[0,0,0,0,0,0,0,0,0,0,0,0,0,0,0,0,0,0,0,0,0,0,0,0,0,0,0,0,0,0,0,0,0,0,0,0,0,0,0,0,0,0,0,0,0,0,0,0,0,0,0,0,0,0,0,0,0,0,2.5938,2.5938,0,2.5872,2.5871,2.587,2.5718,2.5714,2.5711,2.5708,2.5641,2.5643,2.5644,0,0,0,0,0,0,0,0,0,0,0,0,0,2.5932,2.5933,2.5938,2.5938,2.5937,2.5872,2.5871,2.587,2.5718,2.5714,2.571,2.5707,2.5641,2.5642,2.5644,0,0,0,0,0,0,0,0,0,0,0,0,0,2.5907,2.5933,2.5938,2.5853,2.5845,2.5872,2.5871,2.587,2.5719,2.5714,2.5709,2.5705,2.5641,2.5642,2.5644,2.575,0,0,2.5649,2.565,0,0,0,0,0,0,0,0,2.5909,2.5908,2.5866,2.5859,2.585,2.5798,2.5844,2.583,2.572,2.5767,2.5708,2.5703,2.5697,2.5694,2.5692,2.5747,2.5744,2.5649,2.5651,2.5651,2.5652,0,0,0,0,0,0,0,2.5911,2.591,2.5912,2.5866,2.5856,2.5817,2.5809,2.5841,2.576,2.5762,2.5751,2.5745,2.5692,2.5691,2.569,2.5743,2.5649,2.5651,2.5652,2.5653,2.5876,2.588,0,0,0,0,0,0,2.5925,2.5912,2.5914,2.591,2.5868,2.5822,2.5812,2.582,2.5759,2.5745,2.5749,2.5738,2.569,2.5688,2.5687,2.5803,2.5651,2.5653,2.5654,2.5871,2.5877,2.5882,0,0,0,0,0,0,2.5925,2.5927,2.5917,2.5908,2.5904,2.5827,2.5837,2.5821,2.5819,2.5749,2.5734,2.5763,2.5686,2.5684,2.5734,2.5799,2.5654,2.5655,2.5865,2.5873,2.588,2.6039,0,0,0,0,0,0,2.5926,2.5928,2.5968,2.591,2.5905,2.5966,2.5841,2.5823,2.5823,2.5808,2.5758,2.5745,2.5683,2.5732,2.5736,2.5798,2.5657,2.5859,2.5869,2.5877,2.6028,2.6051,2.6071,0,0,0,0,0,2.5926,2.6016,2.597,2.5971,2.5953,2.597,2.5967,2.5893,2.5829,2.5867,2.5821,2.5747,2.5792,2.5739,2.5741,2.5806,2.5855,2.5866,2.5877,2.6018,2.6047,2.6071,0,0,0,0,0,0,2.6084,2.6007,2.5955,2.603,2.6008,2.5945,2.5991,2.5926,2.5923,2.5909,2.5817,2.5807,2.5869,2.5842,2.5785,2.5902,2.5811,2.5823,2.5917,2.5944,2.5965,2.5969,2.5658,0,0,0,0,0,2.6128,2.6148,2.608,2.6152,2.6143,2.607,2.6075,2.6019,2.5993,2.5983,2.5941,2.5918,2.5926,2.5934,2.5938,2.6024,2.6009,2.6069,2.6091,2.6109,2.612,2.6159,2.6184,2.5918,2.5918,2.5918,0,0,2.6218,2.6178,2.6197,2.6183,2.6159,2.6181,2.6063,2.6093,2.6108,2.5987,2.6031,2.5999,2.5968,2.6035,2.6063,2.6015,2.619,2.6123,2.6138,2.6138,2.6173,2.6198,2.6221,2.5926,2.5924,2.5923,0,0,2.6393,2.6366,2.6421,2.6399,2.6365,2.6315,2.6328,2.6274,2.6248,2.6291,2.62,2.6217,2.6234,2.6214,2.6206,2.6371,2.6301,2.6375,2.6487,2.6527,2.6548,2.6566,2.6622,2.6644,2.6387,2.6387,2.6387,0,2.6509,2.6539,2.6458,2.6492,2.6487,2.6378,2.6432,2.6416,2.6385,2.6384,2.6331,2.6347,2.6319,2.6378,2.6418,2.6417,2.6427,2.638,2.6552,2.6569,2.6585,2.6637,2.6659,2.6396,2.6395,2.6394,2.6393,0,2.6682,2.6704,2.6753,2.6724,2.6725,2.677,2.6694,2.6705,2.6649,2.6605,2.6647,2.6609,2.6602,2.6612,2.6559,2.6663,2.6634,2.6569,2.6474,2.662,2.6668,2.6687,2.6409,2.6406,2.6403,2.6401,0,0,2.6955,2.6878,2.6898,2.6881,2.6834,2.6849,2.6888,2.688,2.689,2.6872,2.6901,2.6917,2.6854,2.6845,2.6789,2.6824,2.6953,2.6753,2.6751,2.6789,2.7062,2.7111,2.7135,2.6907,2.6911,2.6914,2.7064,0,2.7116,2.7177,2.7104,2.718,2.7198,2.7094,2.7127,2.7102,2.7061,2.707,2.7024,2.7036,2.6954,2.6948,2.6978,2.6931,2.7007,2.692,2.6931,2.6932,2.694,2.716,2.7212,2.7356,2.7082,2.7085,2.7088,0,2.7312,2.7301,2.738,2.7324,2.7329,2.736,2.7345,2.7356,2.7324,2.7291,2.7281,2.7212,2.7245,2.7154,2.7197,2.7139,2.714,2.7117,2.7121,2.7117,2.7018,2.716,2.74,2.7421,2.7117,2.7114,2.7112,0,2.7499,2.7505,2.7551,2.7541,2.7479,2.7503,2.7478,2.7441,2.744,2.7427,2.7425,2.7418,2.7413,2.7408,2.7338,2.7279,2.7388,2.7293,2.736,2.7362,2.7386,2.7385,2.7627,2.7392,2.7391,2.7391,2.739,0,2.7685,2.7736,2.7633,2.7662,2.7715,2.7631,2.7686,2.765,2.7618,2.7637,2.7548,2.7567,2.7475,2.7484,2.743,2.7472,2.7471,2.7444,2.7429,2.7451,2.7454,2.7448,2.7436,2.7396,2.7395,2.7394,2.7393,0,2.7902,2.7836,2.7879,2.7816,2.7801,2.7843,2.7788,2.7811,2.7764,2.7789,2.779,2.7716,2.7722,2.7652,2.7646,2.7609,2.7674,2.7643,2.7685,2.7674,2.7744,2.7738,2.7989,2.8017,2.7767,2.7769,2.7771,0,2.8024,2.806,2.8001,2.8006,2.7986,2.7997,2.7994,2.7913,2.7914,2.7879,2.7906,2.7904,2.7898,2.7913,2.7858,2.7851,2.7817,2.7906,2.7816,2.7835,2.7815,2.7812,2.7814,2.7924,2.7927,2.793,2.7932,0,2.8246,2.8211,2.8211,2.82,2.8199,2.8187,2.8168,2.8178,2.8088,2.8094,2.8099,2.8094,2.8086,2.8085,2.8067,2.804,2.7971,2.7961,2.7975,2.7997,2.8019,2.8005,2.7734,2.7955,2.7953,2.7951,2.795,2.7949,2.8417,2.8443,2.8404,2.8407,2.8384,2.8368,2.8385,2.834,2.8342,2.8328,2.828,2.8293,2.8257,2.8226,2.8206,2.8213,2.817,2.8192,2.8197,2.8203,2.8215,2.802,2.8211,2.821,2.8209,2.8208,2.8208,0,2.8631,2.8601,2.8604,2.858,2.8582,2.8516,2.8491,2.8497,2.8509,2.8481,2.8477,2.8481,2.8479,2.8424,2.8414,2.8431,2.8399,2.8431,2.8428,2.8422,2.8256,2.8243,2.8457,2.8457,2.8457,2.8457,2.8457,2.8457,2.8743,2.8783,2.8743,2.877,2.8739,2.875,2.8741,2.8725,2.8702,2.871,2.8708,2.8672,2.8633,2.8619,2.8614,2.8598,2.8597,2.864,2.8613,2.8459,2.8434,2.8411,2.8398,2.8642,2.8642,2.8778,2.8779,2.878]},{"header":{"parameterUnit":"m.s-1","parameterCategory":1,"la1":30.2991,"la2":30.254,"lo1":-89.0895,"lo2":-89.0444,"dy":0.0017,"dx":0.0017,"nx":28,"ny":28,"refTime":"2024-07-27T21:00:00:Z","depth":0,"parameterNumber":3,"parameterNumberName":"V-component_of_WINDS"},"data":[0,0,0,0,0,0,0,0,0,0,0,0,0,0,0,0,0,0,0,0,0,0,0,0,0,0,0,0,0,0,0,0,0,0,0,0,0,0,0,0,0,0,0,0,0,0,0,0,0,0,0,0,0,0,0,0,0,0,2.7127,2.7128,0,2.717,2.7171,2.7171,2.7149,2.7148,2.7147,2.7146,2.7189,2.7191,2.7193,0,0,0,0,0,0,0,0,0,0,0,0,0,2.7024,2.7026,2.7127,2.7128,2.7128,2.717,2.7171,2.7171,2.715,2.7148,2.7147,2.7146,2.7188,2.719,2.7193,0,0,0,0,0,0,0,0,0,0,0,0,0,2.7068,2.7026,2.7127,2.7123,2.7123,2.717,2.7171,2.7171,2.715,2.7148,2.7146,2.7145,2.7187,2.719,2.7193,2.7247,0,0,2.7203,2.7205,0,0,0,0,0,0,0,0,2.7065,2.7071,2.7123,2.7123,2.7123,2.7153,2.715,2.7197,2.715,2.7139,2.7146,2.7144,2.7178,2.7182,2.7194,2.7249,2.7251,2.7204,2.7206,2.7207,2.7208,0,0,0,0,0,0,0,2.7062,2.7069,2.7144,2.7123,2.7124,2.7117,2.7122,2.7158,2.7168,2.714,2.7139,2.7144,2.7178,2.719,2.7194,2.7252,2.7204,2.7207,2.7209,2.721,2.735,2.7352,0,0,0,0,0,0,2.706,2.7067,2.7143,2.7145,2.7089,2.7121,2.7125,2.7145,2.7167,2.7169,2.7146,2.7143,2.7186,2.7191,2.7196,2.7258,2.7207,2.721,2.7212,2.7348,2.735,2.7352,0,0,0,0,0,0,2.7057,2.7067,2.7141,2.7106,2.7115,2.7124,2.7146,2.7147,2.7159,2.7171,2.7172,2.7157,2.7185,2.7191,2.7234,2.7259,2.7212,2.7215,2.7346,2.7349,2.7351,2.7383,0,0,0,0,0,0,2.7055,2.7066,2.7088,2.7107,2.7117,2.718,2.7148,2.7149,2.7165,2.7162,2.7182,2.7184,2.7184,2.7229,2.7237,2.7263,2.7217,2.7344,2.7347,2.735,2.738,2.7387,2.7393,0,0,0,0,0,2.7051,2.7095,2.7089,2.7098,2.7144,2.7181,2.7187,2.7186,2.7167,2.7188,2.7195,2.7183,2.7255,2.7234,2.7243,2.7269,2.7342,2.7346,2.735,2.7377,2.7386,2.7393,0,0,0,0,0,0,2.708,2.7098,2.7091,2.7143,2.716,2.7177,2.7204,2.7195,2.7218,2.7215,2.7212,2.7217,2.726,2.7269,2.7245,2.7321,2.7296,2.7302,2.7313,2.7321,2.7327,2.7323,2.722,0,0,0,0,0,2.7092,2.7121,2.7136,2.718,2.7189,2.7195,2.7211,2.7209,2.7227,2.7234,2.7244,2.7262,2.7288,2.7305,2.733,2.7382,2.7384,2.7404,2.741,2.7415,2.742,2.7445,2.7453,2.7365,2.7365,2.7365,0,0,2.7118,2.7131,2.715,2.7186,2.7199,2.7228,2.7202,2.7234,2.7255,2.7239,2.7279,2.7287,2.7306,2.7353,2.7374,2.7361,2.7445,2.742,2.7424,2.7426,2.745,2.7458,2.7465,2.7368,2.7367,2.7367,0,0,2.7179,2.7194,2.7231,2.7244,2.7264,2.7268,2.7276,2.7294,2.7299,2.7339,2.7327,2.7351,2.7397,2.741,2.7423,2.7486,2.7475,2.7494,2.7526,2.755,2.7557,2.7563,2.7583,2.7591,2.7499,2.7499,2.7499,0,2.7209,2.7253,2.7251,2.7283,2.7298,2.7285,2.7321,2.7334,2.7361,2.7371,2.7357,2.7412,2.7425,2.7472,2.7487,2.7499,2.7507,2.7491,2.7556,2.7562,2.7568,2.7587,2.7595,2.7501,2.7501,2.7501,2.7501,0,2.7286,2.7317,2.7344,2.737,2.7388,2.7422,2.7424,2.7442,2.7438,2.7442,2.7481,2.7495,2.7521,2.7533,2.7529,2.7579,2.757,2.7557,2.7531,2.7578,2.7596,2.7604,2.7504,2.7503,2.7503,2.7502,0,0,2.7368,2.739,2.74,2.741,2.743,2.7453,2.7486,2.7511,2.7525,2.7544,2.757,2.7608,2.7594,2.7608,2.7606,2.7627,2.7673,2.761,2.7611,2.762,2.7726,2.7735,2.7743,2.7666,2.7668,2.7669,2.7723,0,2.7429,2.7486,2.7484,2.7537,2.7563,2.7549,2.7577,2.7591,2.7596,2.7617,2.7622,2.7648,2.7629,2.7637,2.7658,2.7663,2.7694,2.7659,2.7688,2.7689,2.7682,2.7753,2.7763,2.7814,2.773,2.7732,2.7733,0,2.7508,2.7528,2.7583,2.7596,2.7607,2.7632,2.7653,2.7675,2.769,2.7692,2.7706,2.77,2.7731,2.7705,2.7746,2.7723,2.7734,2.7738,2.774,2.7742,2.7713,2.7754,2.7831,2.7837,2.7744,2.7743,2.7742,0,2.7559,2.76,2.7637,2.7646,2.7663,2.7681,2.7689,2.7702,2.7716,2.7735,2.7743,2.7766,2.7777,2.7794,2.7792,2.7774,2.7833,2.7808,2.7833,2.7833,2.7846,2.7845,2.7923,2.7856,2.7856,2.7856,2.7856,0,2.7626,2.766,2.7659,2.7682,2.7719,2.7715,2.7751,2.7757,2.7768,2.7791,2.7781,2.7802,2.78,2.7821,2.782,2.7852,2.7858,2.7859,2.7858,2.7859,2.7858,2.7865,2.7861,2.7858,2.7858,2.7857,2.7857,0,2.7689,2.769,2.773,2.7742,2.7745,2.7771,2.7781,2.7802,2.7804,2.7832,2.7839,2.7843,2.7866,2.7867,2.7895,2.7894,2.7933,2.7929,2.7928,2.7926,2.7951,2.7947,2.8035,2.8045,2.7974,2.7974,2.7975,0,2.7731,2.7756,2.777,2.7784,2.7792,2.7816,2.7829,2.7827,2.7841,2.7859,2.7877,2.7899,2.7917,2.7955,2.796,2.798,2.7975,2.8005,2.7978,2.7977,2.7973,2.7971,2.7972,2.8009,2.801,2.8011,2.8011,0,2.7804,2.7803,2.7823,2.7843,2.786,2.7876,2.789,2.7902,2.79,2.7917,2.7941,2.7954,2.7981,2.8003,2.8022,2.8029,2.8019,2.8019,2.8026,2.8026,2.8023,2.8023,2.7939,2.8017,2.8017,2.8016,2.8016,2.8016,2.7856,2.7877,2.7889,2.7911,2.7921,2.7934,2.7953,2.7957,2.7977,2.7998,2.7995,2.8021,2.8033,2.8057,2.8066,2.8085,2.8075,2.8085,2.8087,2.8089,2.809,2.8022,2.8089,2.8089,2.8088,2.8088,2.8088,0,2.7927,2.7933,2.7954,2.7973,2.799,2.7979,2.7994,2.8008,2.8031,2.8043,2.806,2.8086,2.8106,2.8112,2.8131,2.8145,2.8141,2.815,2.8148,2.815,2.81,2.8091,2.8153,2.8153,2.8153,2.8153,2.8153,2.8153,2.7965,2.7998,2.7998,2.8035,2.8041,2.8066,2.8075,2.8086,2.8095,2.8124,2.8141,2.8144,2.8153,2.8172,2.819,2.8191,2.8197,2.8208,2.8207,2.816,2.8153,2.8147,2.8139,2.821,2.821,2.8255,2.8255,2.8255]}]]